Погода в Высоких Татрах

Словакия     49°08′25″N   20°13′25″E
темп.,
°C
ветер,
м/с
пор.,
м/с
влажн.,
%
обл.,
%
осадки,
мм/ч
давл.,
гПа
погр.,
м
16 января, вс
вс1601:00−7зюз22514 0.0 102912
04:00−6юз22438 0.0 102712
07:00−5юз224515 0.0 102718
10:00−1ююз2345100 0.0 102470
13:00+2ю2350100 0.0 1021142
16:00−2ююз2267100 0.0 102149
19:00−4юз1168100 0.0 102129
22:00−4сз1272100 0.0 1022102
17 января, пн
пн1701:00−5зсз358642 0.0 1022158
04:00−4зсз378660 0.0 1019250
07:00−4з4883100 0.0 1018307
10:00−2з5117679 0.1 1015934
13:00−2зсз72186100 1.3 10111709
16:00−5сз82392100 5.1 10151949
19:00−7сз6189198 6.7 10211775
22:00−7сз6148477 0.3 10251160
18 января, вт
вт1801:00−8сз5108973 0.4 1028769
04:00−8сз5109073 0.2 1029712
07:00−7сз5109177 0.4 1030744
10:00−6сз5118676 0.1 1031836
13:00−5сз5108477 0.3 1032898
16:00−7сз489277 0.3 1035577
19:00−7сз469148 0.4 1036394
22:00−9зсз34885 0.0 103764
19 января, ср
ср1901:00−8зсз228292 0.0 103736
04:00−8з227941 0.0 103519
07:00−7зюз22782 0.0 103314
10:00−1з01640 0.0 102992
13:00+1ссз01695 0.0 1026209
16:00−4ююз229281 0.0 102615
19:00−4ююз2385100 0.0 102438
22:00−5ююз338293 0.0 102249
20 января, чт
чт2001:00−6ююз347998 0.0 101975
04:00−7юз34886 0.0 101765
07:00−6ююз348874 0.0 101476
10:00−2юз1482100 0.0 1011259
13:00−1юз2572100 0.0 1008825
16:00−4юз239244 0.1 100970
19:00−4зсз369172 0.6 1009459
22:00−7зсз5128111 3.1 10131273